Location: Campillo
(40.8621°N, 4.2488°W)
Time: 11:09:19
(UTC+00:00)

Cosmos 1812 - Pass Details

Date: 11 May 2021
Orbit: 514 x 521 km, 82.5° (Epoch: 14 June)

Event Time Altitude Azimuth Distance (km) Brightness Sun altitude
Exits shadow 20:47:34 24° 111° (ESE) 1,122 3.8 -14.2°
Maximum altitude 20:48:23 26° 90° (E) 1,065 3.9 -14.3°
Drops below altitude 10° 20:51:37 10° 33° (NNE) 1,764 5.5 -14.7°
Sets 20:54:00 0° 21° (NNE) 2,657 6.6 -15.1°
